Talkeetna, AK

2:54 PM AKDT on June 22, 2018 (GMT -0800)
Talkeetna

Weather History for PATK - October, 2017

Change the Weather History Date:

Thursday, October 12, 2017

  Actual Average Record
Temperature  
Mean Temperature 40 °F -  
Max Temperature 42 °F 41 °F 57 °F (2016)
Min Temperature 37 °F 25 °F 10 °F (1992)
Degree Days  
Heating Degree Days 26    
Moisture  
Dew Point 38 °F    
Average Humidity 92    
Maximum Humidity 97    
Minimum Humidity 84    
Precipitation  
Precipitation 0.31 in - - ()
Sea Level Pressure  
Sea Level Pressure 30.04 in    
Wind  
Wind Speed 3 mph (NNW)    
Max Wind Speed 7 mph    
Max Gust Speed -    
Visibility 8 miles    
Events Rain    
Averages and records for this station are not official NWS values.
T = Trace of Precipitation, MM = Missing Value Source: NWS Daily Summary

Daily Weather History Graph

Daily Weather History Graph

Search for Another Location

Airport or City:

Astronomy

Oct. 12, 2017 Rise Set
Actual Time 8:38 AM AKDT 6:53 PM AKDT
Civil Twilight 7:53 AM AKDT 7:38 PM AKDT
Nautical Twilight 7:01 AM AKDT 8:30 PM AKDT
Astronomical Twilight 6:08 AM AKDT 9:23 PM AKDT
Moon No Moon Rise 5:03 PM AKDT (10/12)
Length of Visible Light 11h 45m
Length of Day
10h 14m
Waning Gibbous, 47% of the Moon is Illuminated
Oct 12
Waning Gibbous
Oct 19
New
Oct 27
First Quarter
Nov 3
Full
Nov 10
Last Quarter

Hourly Weather History & Observations

Time (AKDT) Temp. Windchill Dew Point Humidity Pressure Visibility Wind Dir Wind Speed Gust Speed Precip Events Conditions
12:53 AM 39.9 °F 37.8 °F 37.9 °F 93% 30.20 in 10.0 mi NW 3.5 mph - N/A   Overcast
1:53 AM 39.9 °F - 37.0 °F 89% 30.19 in 10.0 mi Calm Calm - N/A   Overcast
2:20 AM 39.0 °F - 37.0 °F 93% 30.17 in 10.0 mi Calm Calm - N/A   Overcast
2:31 AM 39.0 °F - 37.0 °F 93% 30.17 in 10.0 mi Calm Calm - N/A   Overcast
2:43 AM 39.0 °F - 37.0 °F 93% 30.18 in 10.0 mi Calm Calm - N/A   Overcast
2:53 AM 39.0 °F - 37.0 °F 93% 30.19 in 10.0 mi Calm Calm - N/A   Overcast
3:39 AM 39.0 °F 35.7 °F 36.0 °F 89% 30.16 in 10.0 mi NNW 4.6 mph - N/A   Overcast
3:53 AM 39.0 °F 35.7 °F 36.0 °F 89% 30.18 in 10.0 mi NNW 4.6 mph - N/A   Scattered Clouds
4:53 AM 39.0 °F 36.8 °F 36.0 °F 89% 30.17 in 10.0 mi NNW 3.5 mph - N/A   Overcast
5:53 AM 39.0 °F 35.7 °F 36.0 °F 89% 30.16 in 10.0 mi NNW 4.6 mph - N/A   Overcast
6:53 AM 39.9 °F - 36.0 °F 86% 30.15 in 10.0 mi Calm Calm - N/A   Overcast
7:53 AM 39.9 °F 37.8 °F 36.0 °F 86% 30.13 in 10.0 mi NNW 3.5 mph - 0.00 in Rain Light Rain
8:53 AM 39.9 °F 36.7 °F 36.0 °F 86% 30.12 in 10.0 mi North 4.6 mph - 0.00 in   Overcast
9:53 AM 39.9 °F 36.7 °F 37.0 °F 89% 30.10 in 10.0 mi NNW 4.6 mph - 0.00 in Rain Light Rain
10:53 AM 39.9 °F 37.8 °F 37.9 °F 93% 30.10 in 9.0 mi NNW 3.5 mph - 0.02 in Rain Light Rain
11:53 AM 39.9 °F 36.7 °F 39.0 °F 97% 30.08 in 10.0 mi North 4.6 mph - 0.03 in Rain Light Rain
12:53 PM 41.0 °F 37.1 °F 39.0 °F 93% 30.05 in 9.0 mi NNW 5.8 mph - 0.01 in Rain Light Rain
1:53 PM 42.1 °F 39.2 °F 39.9 °F 92% 30.02 in 10.0 mi North 4.6 mph - 0.02 in Rain Light Rain
2:53 PM 42.1 °F 39.2 °F 39.9 °F 92% 30.00 in 7.0 mi North 4.6 mph - 0.03 in Rain Light Rain
3:26 PM 42.1 °F 38.4 °F 39.9 °F 92% 29.96 in 6.0 mi North 5.8 mph - 0.02 in Rain Light Rain
3:53 PM 42.1 °F 38.4 °F 39.9 °F 92% 29.96 in 6.0 mi North 5.8 mph - 0.03 in Rain Light Rain
4:53 PM 42.1 °F 39.2 °F 39.9 °F 92% 29.93 in 8.0 mi North 4.6 mph - 0.04 in Rain Light Rain
5:53 PM 41.0 °F 39.0 °F 39.9 °F 96% 29.91 in 7.0 mi North 3.5 mph - 0.05 in Rain Light Rain
6:36 PM 41.0 °F 39.0 °F 39.9 °F 96% 29.88 in 8.0 mi North 3.5 mph - 0.03 in Rain Light Rain
6:53 PM 41.0 °F 39.0 °F 39.9 °F 96% 29.90 in 7.0 mi North 3.5 mph - 0.04 in Rain Light Rain
7:53 PM 39.9 °F 36.7 °F 39.0 °F 97% 29.90 in 8.0 mi North 4.6 mph - 0.05 in Rain Light Rain
8:53 PM 39.0 °F 34.8 °F 37.9 °F 96% 29.90 in 6.0 mi North 5.8 mph - 0.06 in Rain Rain
9:29 PM 39.0 °F 36.8 °F 37.9 °F 96% 29.89 in 6.0 mi North 3.5 mph - 0.06 in Rain Rain
9:51 PM 39.2 °F 35.0 °F 37.4 °F 93% 29.89 in 7.0 mi North 5.8 mph - 0.08 in Rain Light Rain
9:53 PM 39.0 °F 35.7 °F 37.9 °F 96% 29.90 in 8.0 mi NNW 4.6 mph - 0.08 in Rain Light Rain
10:18 PM 39.0 °F 36.8 °F 37.9 °F 96% 29.89 in 6.0 mi North 3.5 mph - 0.04 in Rain Rain
10:53 PM 39.0 °F 35.7 °F 37.0 °F 93% 29.90 in 9.0 mi NNW 4.6 mph - 0.09 in Rain Light Rain
11:53 PM 37.9 °F 32.7 °F 37.0 °F 97% 29.90 in 6.0 mi North 6.9 mph - 0.03 in Rain Light Rain